Probability
5 5 4 2 0 0 0 0 0 0 0 0 0 0 0 0 0 0 0 0 0 1 2 1 1 1 0 0 0 0 0 0 0 1 0 0 0 0 0 0 0 0 0 1 2 3 3 3 3
4 3 2 1 0 0 0 0 0 0 0 0 0 0 0 0 0 0 0 0 0 1 1 1 1 0 0 0 0 0 0 0 1 1 1 0 0 0 0 0 0 0 0 1 2 3 3 3 2
4 2 1 0 0 0 0 1 2 1 0 0 0 0 0 0 0 0 0 0 0 0 1 2 1 0 0 0 0 0 0 0 1 1 1 1 0 0 0 0 0 0 0 1 3 4 4 4 4
3 2 1 0 0 0 0 1 2 1 0 0 0 0 0 0 1 1 0 0 0 0 1 2 1 0 0 0 0 0 0 0 0 1 2 2 1 1 1 0 0 0 0 1 2 4 4 5 6
2 2 1 0 0 0 0 1 1 1 0 1 1 1 0 1 1 1 0 0 0 0 1 1 0 0 0 0 0 0 0 0 0 0 1 2 2 2 2 1 1 1 0 1 2 3 4 5 5
2 1 0 0 0 0 0 0 0 0 0 1 2 2 2 1 1 0 0 0 0 0 0 0 0 0 0 1 0 0 0 0 0 1 1 1 1 1 2 2 2 1 1 1 2 3 4 2 2
1 0 0 0 0 0 0 0 0 0 1 2 3 3 4 3 1 0 0 0 0 0 0 0 0 0 0 0 0 0 0 0 1 2 2 2 1 1 1 1 1 1 1 2 2 3 3 1 0
0 0 0 0 0 0 0 0 0 1 2 2 2 3 4 4 2 0 0 1 1 0 0 0 0 0 0 0 0 0 0 0 1 2 2 2 1 0 1 2 2 1 0 1 1 1 1 1 0
1 1 0 0 0 0 0 0 0 1 2 2 2 2 3 4 2 1 1 1 1 0 0 0 0 0 0 0 0 0 0 0 1 1 1 1 0 0 1 2 2 2 1 0 0 0 0 0 0
2 2 1 0 0 0 0 0 0 1 3 3 3 2 3 4 3 1 1 1 1 0 0 0 0 0 0 0 0 0 0 0 0 0 0 0 0 0 1 1 3 3 1 0 0 0 0 0 0
2 2 1 0 0 0 0 0 0 2 4 5 5 5 4 4 4 2 2 2 2 1 1 1 0 0 0 0 0 0 0 0 0 0 0 0 0 0 0 2 3 3 2 1 0 0 0 0 0
1 1 0 0 0 1 1 0 0 2 5 5 6 6 4 4 3 3 4 5 4 2 2 1 0 0 0 0 0 0 0 0 0 0 0 0 0 0 0 1 2 3 2 1 0 0 0 0 0
0 0 0 0 1 2 1 0 0 2 4 6 7 7 5 4 5 6 7 7 5 3 2 1 0 0 0 0 0 0 0 0 0 0 0 0 0 0 0 0 1 2 2 1 0 0 0 0 0
0 0 0 0 1 2 2 1 1 2 4 6 8 9 7 6 7 8 8 7 5 2 1 1 0 0 0 0 0 0 0 0 0 0 0 0 0 0 0 0 0 1 1 1 0 0 0 0 0
0 0 1 1 2 2 3 2 2 3 5 7 8 9 7 6 7 7 7 6 4 1 0 0 0 0 1 1 1 0 0 0 0 0 0 0 0 0 0 0 0 0 0 0 0 0 0 0 0
0 0 1 1 2 2 3 3 2 3 4 5 6 7 8 7 6 6 6 5 4 2 0 0 0 1 2 2 1 0 0 0 0 0 0 0 0 0 0 0 0 0 0 0 0 0 0 0 0
0 0 0 0 1 1 3 3 2 2 2 4 5 7 8 8 7 7 6 6 5 4 2 0 0 1 2 1 1 0 0 0 0 0 0 0 0 0 0 0 0 0 0 0 0 0 0 0 0
0 0 0 0 0 1 2 3 1 1 1 3 6 7 7 8 8 7 8 8 7 6 3 1 0 1 1 0 0 0 0 0 0 0 0 0 0 0 0 0 0 0 0 0 0 0 0 0 0
0 0 0 1 0 1 2 3 2 1 1 3 6 6 6 7 7 8 9 10 9 7 5 2 1 0 0 0 0 0 0 0 0 0 0 0 0 1 2 1 1 1 0 1 1 1 0 0 0
0 0 0 0 0 1 2 3 2 1 2 4 6 6 6 6 7 8 11 12 11 9 6 3 1 0 0 1 1 0 0 0 0 0 0 0 0 2 3 3 3 2 1 1 2 2 1 1 0
0 0 0 0 0 0 1 2 1 1 2 4 6 6 6 6 7 9 11 13 12 10 7 4 2 1 1 2 2 1 0 0 0 0 1 1 1 2 3 3 3 4 3 3 2 2 2 1 0
0 0 0 0 0 0 0 0 0 1 2 3 4 4 5 5 6 8 10 12 12 9 6 4 2 2 3 4 3 1 0 0 1 1 2 2 3 3 3 3 3 3 4 3 2 2 2 2 1
0 0 0 0 0 0 0 0 0 0 1 2 3 3 4 4 5 6 8 11 11 8 4 2 2 3 4 4 3 2 1 1 2 2 3 4 4 4 4 4 3 3 3 3 1 1 2 2 1
0 0 0 0 0 0 0 0 0 0 1 2 3 3 3 3 4 6 8 9 10 7 3 1 1 3 4 3 3 2 2 2 2 3 4 5 6 5 5 4 3 3 2 1 1 1 2 2 1
0 0 0 0 0 0 0 0 0 0 1 2 3 3 3 4 5 6 8 8 8 7 4 2 2 3 4 3 2 1 2 3 3 3 5 7 7 6 5 3 3 2 1 0 0 0 1 1 1
0 0 0 0 0 0 0 0 0 0 0 1 3 3 4 5 6 7 8 8 7 6 5 3 3 4 4 3 2 1 2 4 3 4 6 7 7 6 5 3 2 1 0 0 0 0 0 1 1
0 0 0 0 0 0 0 0 0 0 0 1 2 4 5 6 6 7 8 9 7 5 4 3 3 4 3 3 3 3 3 4 4 5 6 6 6 5 5 3 1 0 0 0 0 0 0 0 1
0 0 0 0 0 0 0 0 0 0 0 1 2 4 6 6 6 8 9 8 6 5 3 1 1 2 2 2 3 4 5 6 6 6 6 6 4 4 4 3 1 0 0 0 0 1 0 0 1
0 0 0 0 0 0 0 0 0 0 1 1 3 4 6 6 6 7 7 5 4 4 2 1 0 0 1 2 3 4 5 6 6 6 6 5 4 3 4 3 1 0 0 0 0 0 0 0 0
0 0 0 0 0 0 0 0 0 1 2 2 3 4 6 6 6 5 5 4 3 3 2 1 0 0 1 2 4 5 5 6 6 6 6 5 3 3 4 3 1 0 0 0 0 0 0 0 0
Wind_Speed
8 9 5 1 2 1 4 4 6 6 6 7 8 9 12 11 8 7 1 3 5 7 8 8 9 10 10 10 10 11 11 11 12 11 11 10 10 10 10 9 9 8 8 8 9 9 9 9 8
8 6 3 2 2 2 4 5 7 8 6 5 7 10 12 11 10 6 2 3 5 8 8 8 9 10 10 10 10 10 11 12 12 11 10 10 10 10 10 9 9 9 9 9 9 9 8 8 8
11 6 3 1 2 4 4 6 7 8 6 6 7 10 9 7 7 5 3 4 7 8 9 9 9 10 10 10 11 11 11 11 11 11 11 11 10 10 10 10 10 10 9 9 9 9 8 8 7
5 3 2 1 6 6 5 6 5 6 6 6 8 9 8 7 6 6 5 6 8 8 9 9 9 10 10 10 11 11 11 11 11 11 11 11 10 10 10 10 10 10 10 9 8 9 9 8 7
3 2 1 3 6 5 5 6 5 7 6 7 9 9 8 8 9 7 5 6 7 8 9 9 10 10 10 11 11 11 11 10 10 10 10 11 11 11 10 10 10 10 9 9 9 9 8 8 8
2 2 1 4 6 5 5 6 6 8 8 8 9 9 7 6 7 5 5 5 6 8 9 8 10 10 10 11 10 10 10 9 9 9 9 10 10 10 10 10 10 9 9 9 8 8 8 7 7
1 1 2 4 5 5 5 6 6 6 7 7 7 7 6 6 5 4 5 5 6 7 7 7 7 8 9 10 10 9 8 8 7 7 7 7 8 9 9 9 9 9 8 8 7 6 6 6 5
1 1 2 3 3 4 5 6 6 7 7 6 6 6 6 6 4 4 5 5 5 5 5 6 6 6 6 6 8 8 7 6 5 4 4 4 6 7 8 8 8 8 7 6 5 5 4 4 3
1 1 2 2 3 4 5 5 5 7 7 7 8 9 9 8 6 5 5 4 4 5 3 4 5 5 5 5 6 5 5 3 2 2 1 1 2 4 5 7 7 7 6 4 3 3 3 2 1
1 1 2 3 4 4 5 4 3 5 7 7 9 10 9 7 5 5 5 5 4 4 3 3 3 4 4 4 4 2 2 2 1 2 2 1 2 2 4 5 5 4 3 2 1 1 0 1 1
2 3 4 5 5 5 4 4 3 4 4 5 8 9 8 6 4 4 4 5 5 4 3 3 3 3 4 3 2 1 1 1 2 3 3 2 2 1 2 1 2 1 1 0 1 0 1 1 2
3 5 4 4 4 4 3 3 5 5 4 6 8 8 8 6 4 3 3 4 5 4 3 2 3 3 3 3 2 2 2 2 2 3 3 2 2 2 2 1 1 1 1 2 2 2 3 4 4
3 4 5 4 3 3 4 3 4 4 4 6 8 8 6 5 4 4 4 4 4 4 3 2 2 2 3 3 1 3 3 3 3 2 2 3 2 2 2 2 2 2 2 2 2 3 4 4 4
4 4 4 4 3 2 4 3 2 3 4 6 7 7 5 4 4 4 4 4 4 4 4 3 2 3 3 3 2 3 3 2 2 2 3 3 2 2 3 3 3 3 2 2 2 3 3 3 3
5 4 4 3 4 3 2 2 1 3 4 5 6 6 5 4 4 3 3 3 3 4 4 4 3 3 4 4 4 3 2 3 2 2 3 4 3 3 3 3 3 3 3 4 3 4 3 3 4
7 5 3 3 4 3 3 2 1 4 4 4 4 6 5 5 4 3 3 3 3 4 4 4 3 3 4 4 3 2 3 3 3 3 3 4 4 4 3 3 3 3 3 3 2 3 3 3 4
5 4 5 5 4 4 3 1 2 3 4 4 4 5 6 5 4 3 3 3 3 4 5 4 4 3 4 4 3 3 3 3 3 3 4 5 5 4 4 3 2 3 3 3 3 3 2 3 3
3 3 2 3 4 4 4 3 4 4 5 5 5 5 5 6 5 5 4 3 3 4 4 4 4 4 4 3 3 3 3 3 3 3 3 5 4 4 3 2 3 3 3 3 3 3 3 2 2
4 4 3 1 3 2 3 3 4 5 4 4 4 4 5 6 6 6 5 4 3 3 3 4 4 3 3 2 2 2 2 2 2 2 4 4 4 4 3 2 3 3 3 2 3 3 3 2 2
4 4 2 2 2 2 3 3 4 5 5 4 3 3 4 3 4 6 5 4 3 3 3 4 3 3 3 2 1 1 1 1 1 2 3 3 3 3 3 2 2 3 2 2 3 2 2 1 2
4 4 3 3 3 4 3 4 4 5 5 5 4 3 3 3 3 5 6 4 3 3 3 3 3 3 3 3 2 2 2 1 1 1 1 2 3 3 3 3 2 2 1 1 1 2 2 1 1
4 4 5 5 5 4 5 3 4 6 5 4 4 4 3 3 4 5 5 5 4 3 2 3 3 3 3 3 2 2 1 1 0 1 1 1 2 2 2 2 2 2 2 2 1 2 1 1 1
4 5 7 9 8 6 5 4 2 4 4 4 3 4 3 2 4 5 5 5 4 3 3 2 3 3 3 3 3 2 1 1 1 1 2 1 2 2 2 2 2 2 1 2 2 2 2 1 1
5 8 9 9 7 7 6 4 1 1 2 4 4 3 3 3 4 4 5 4 3 3 3 2 3 3 2 2 2 2 2 1 2 2 1 1 1 2 2 2 2 2 2 2 2 1 2 2 1
5 6 4 4 4 3 2 2 2 3 3 5 5 4 4 4 4 4 4 4 4 3 3 3 3 2 2 2 2 1 1 1 1 1 1 1 1 1 1 2 2 2 2 2 2 2 1 2 1
5 6 3 4 3 2 2 1 3 5 4 5 6 5 5 5 4 4 4 4 3 3 3 3 3 2 2 2 1 1 1 1 1 1 1 1 1 1 1 2 2 2 2 2 1 1 1 2 2
6 4 6 6 8 6 1 3 4 5 5 5 5 5 5 5 4 4 4 4 3 3 2 2 2 2 1 1 1 1 1 1 1 1 1 1 1 1 2 2 2 1 1 1 1 1 1 1 1
6 6 4 4 4 4 2 1 2 4 4 5 5 4 4 4 4 4 4 3 3 3 3 2 2 2 2 1 1 1 2 2 1 1 1 1 1 1 2 2 1 1 1 1 1 1 1 1 0
4 5 5 4 4 3 2 1 2 3 4 4 4 4 5 4 4 4 4 3 3 3 3 2 2 1 1 1 1 2 2 1 1 1 1 1 1 1 1 1 1 1 1 1 1 1 1 1 0
4 4 5 4 5 4 3 1 2 3 4 3 3 4 5 4 4 4 4 4 3 2 2 2 1 1 1 1 1 2 1 1 1 1 1 1 1 1 1 1 0 0 1 1 0 0 0 0 0
Wind_Direction
262 248 238 251 249 146 61 59 60 56 63 51 50 63 65 50 52 88 112 67 80 95 94 76 66 64 63 64 66 63 62 61 59 60 63 63 64 66 68 68 65 67 70 71 71 70 72 72 70
268 264 255 239 258 82 70 61 64 63 72 76 64 67 72 66 68 87 79 71 84 91 93 81 72 69 67 68 68 66 64 63 61 61 64 65 64 64 66 67 66 68 70 72 73 69 68 69 68
261 257 260 255 37 60 69 67 72 75 61 66 73 58 56 67 76 89 88 77 77 81 90 88 80 75 72 70 68 67 66 64 63 60 61 62 63 64 64 64 66 67 69 71 71 71 70 68 67
258 238 237 85 68 62 75 83 86 89 74 61 78 71 64 58 81 98 92 82 85 86 92 94 87 81 77 73 70 68 66 64 63 61 59 62 63 63 63 64 62 63 64 67 70 70 69 67 62
248 249 181 89 78 77 77 86 91 87 83 73 80 87 82 68 81 93 94 84 91 94 98 100 93 88 83 77 72 68 66 65 64 63 64 63 64 64 66 65 63 61 62 65 68 69 67 65 61
286 262 105 87 85 79 71 72 78 81 86 84 92 98 89 93 90 95 92 86 91 99 102 107 104 96 87 81 75 72 69 67 66 66 69 71 71 70 68 67 66 63 65 67 66 67 68 64 57
305 359 67 89 92 79 66 63 67 75 70 71 87 96 107 101 102 112 102 99 99 103 109 115 122 113 100 92 84 78 73 72 73 72 75 81 82 80 78 73 69 67 69 70 68 69 71 67 56
318 351 85 90 91 85 77 74 63 70 65 57 72 95 113 118 129 115 103 93 91 94 107 122 125 125 120 113 103 96 87 80 83 86 84 91 100 95 88 81 77 73 72 75 75 74 75 66 51
285 98 79 85 103 105 98 93 93 90 82 73 71 90 114 130 132 116 104 96 89 82 83 97 113 119 118 123 121 124 116 109 100 101 100 124 110 102 93 91 89 83 80 81 83 82 79 69 47
119 80 66 67 88 107 108 104 115 114 96 88 87 96 114 127 129 125 117 108 98 84 74 85 86 95 102 100 116 133 116 134 130 89 72 43 51 77 95 112 108 106 99 94 108 152 128 300 74
104 95 75 63 75 105 112 111 100 109 100 107 117 124 128 128 122 119 119 117 108 99 79 77 74 76 83 81 85 72 84 74 49 51 59 44 47 67 100 138 136 143 139 32 69 100 33 54 63
104 92 85 78 70 93 103 96 84 78 89 106 115 124 130 132 132 126 116 110 113 103 82 74 80 84 90 85 75 62 54 50 46 36 53 56 40 28 30 56 45 54 47 14 23 37 43 38 49
111 109 105 104 99 100 104 93 92 90 89 108 122 129 134 139 146 137 123 117 115 118 111 89 69 78 77 75 61 76 58 42 46 23 37 60 50 34 40 48 37 37 37 30 26 45 47 42 34
120 123 125 135 133 129 122 115 108 121 131 132 132 131 134 136 130 126 119 117 113 118 112 94 75 78 79 70 57 62 64 57 45 19 16 52 43 40 45 55 34 25 23 28 44 56 52 53 45
167 158 146 160 169 177 132 89 142 147 147 141 138 132 129 122 118 105 101 106 115 115 111 97 75 62 67 67 51 55 52 55 46 19 18 41 44 41 44 45 44 24 22 29 38 48 45 53 53
211 196 182 184 193 183 203 177 176 155 153 140 142 134 134 131 131 118 109 96 105 111 103 93 82 69 68 61 54 47 49 44 47 30 20 29 43 54 49 38 42 34 28 28 37 49 51 46 47
221 218 187 183 198 191 193 168 156 167 162 155 153 151 148 143 143 125 110 99 99 103 103 103 91 79 74 66 57 44 54 44 43 39 27 21 23 47 56 32 36 44 35 27 37 41 55 58 52
255 259 227 191 174 180 185 188 174 192 179 172 166 161 156 152 154 142 128 119 104 94 97 102 100 90 87 78 61 50 44 40 46 44 39 25 17 36 53 37 41 44 44 29 41 51 47 58 55
278 273 260 197 162 193 207 206 190 191 186 176 163 165 162 161 156 148 141 135 120 109 107 99 100 91 87 85 73 59 43 32 42 43 43 30 25 32 48 44 48 50 53 34 41 49 51 41 44
278 281 272 215 192 219 222 216 199 181 177 167 162 172 159 142 153 142 137 133 133 126 119 115 111 106 95 79 81 94 78 49 50 40 35 30 32 25 30 48 61 70 67 46 45 54 39 23 28
269 287 277 258 245 239 247 237 201 174 168 162 164 156 135 137 146 146 143 136 130 134 131 130 126 121 111 105 84 70 71 50 41 55 34 18 36 31 26 40 64 67 79 83 57 67 59 25 356
287 308 288 263 252 243 227 252 210 174 163 158 153 140 141 153 151 146 144 143 140 136 119 122 128 123 121 116 111 115 123 119 78 85 67 16 39 47 39 27 57 73 69 78 48 66 58 55 2
295 291 273 267 260 266 248 244 209 174 165 155 144 135 137 140 141 141 144 140 137 131 124 124 126 115 115 122 130 121 84 90 78 80 71 39 42 37 44 28 36 64 80 85 57 50 45 62 50
276 271 258 256 255 256 241 229 182 161 158 138 124 122 121 123 122 125 130 129 126 120 128 135 127 118 117 109 111 110 98 90 73 56 52 32 40 25 30 48 32 45 62 65 58 61 52 42 46
269 277 270 239 221 240 207 193 134 109 106 127 126 124 122 110 115 123 120 120 123 126 130 128 113 103 103 106 99 105 124 127 118 97 74 49 43 25 4 39 47 48 55 60 55 43 47 40 49
272 267 274 291 285 278 226 161 126 120 112 112 119 122 124 117 116 122 122 124 124 120 126 126 119 124 119 119 113 93 93 107 113 118 94 72 61 34 38 53 52 52 60 57 61 50 39 43 31
284 277 273 279 285 283 226 130 141 133 126 120 125 124 122 123 127 128 125 126 118 116 108 104 119 131 127 129 128 122 104 85 92 89 80 78 69 58 56 58 49 40 63 72 75 66 48 54 31
265 290 295 278 294 289 256 215 177 155 150 141 133 126 128 131 131 129 120 117 116 110 101 101 102 127 141 129 127 114 115 113 96 83 83 90 79 66 70 59 39 24 33 57 71 67 46 72 83
246 253 266 272 264 281 295 12 50 130 142 142 136 130 127 127 128 124 120 113 104 98 94 91 102 116 130 115 117 118 116 121 119 101 90 85 89 93 93 87 47 18 15 22 81 78 63 46 355
261 268 273 282 290 285 284 311 43 82 98 103 112 115 123 126 120 114 109 109 107 102 96 86 67 80 89 113 109 108 96 100 118 116 114 106 102 119 121 125 117 7 349 1 65 119 40 86 326